GEFSSE_con_cape1000_162.txt.gz
Probability
16 35 52 58 74 81 77 77 74 74 74 74 74 58 55 48 52 55 55 48 48 48 45 42 35 29 13 16 13 10 0 0 3 3 10 6 6 6 3 0 3 0 0
19 39 52 55 65 77 84 84 81 77 71 71 65 61 58 48 45 55 48 48 45 42 42 35 32 26 26 19 13 3 3 3 3 3 3 3 3 6 0 0 3 0 0
19 32 42 58 68 68 71 74 77 81 77 71 61 58 55 48 45 45 48 48 39 48 42 42 39 35 23 13 6 3 0 0 6 0 0 0 0 0 0 0 0 0 0
16 26 39 42 52 52 61 58 65 77 74 81 74 61 48 45 48 45 48 48 45 42 39 35 39 35 13 16 3 3 0 3 3 0 0 0 0 0 0 0 0 0 0
19 26 35 39 39 39 48 58 61 65 74 65 65 68 65 55 52 48 45 45 45 45 39 42 42 26 19 13 6 3 0 0 0 0 0 0 0 0 0 0 0 0 0
16 23 29 35 35 35 35 42 48 45 45 55 58 61 55 55 58 48 52 48 52 45 45 39 39 26 16 16 10 6 3 3 0 0 0 0 0 0 0 0 0 0 0
19 19 23 23 26 32 35 35 35 39 39 52 48 58 58 48 52 52 52 45 45 42 42 39 35 26 16 10 10 3 3 0 0 0 0 0 0 0 0 0 0 0 0
13 16 19 23 23 23 29 29 29 32 35 35 42 48 48 58 58 55 58 48 39 39 42 39 32 26 16 13 13 3 0 0 0 0 0 0 0 0 0 0 0 0 0
13 16 16 19 16 16 16 16 19 29 29 32 35 42 45 45 52 58 55 55 52 42 42 42 35 26 19 19 16 3 0 0 0 0 0 0 0 0 0 0 0 0 0
10 16 16 16 16 19 13 13 13 13 13 16 23 19 16 13 19 45 32 45 55 48 45 42 35 29 26 19 13 3 0 0 0 0 0 0 0 3 3 0 0 0 0
3 3 6 13 16 13 13 10 10 10 6 6 3 0 3 16 10 16 10 3 26 35 35 35 32 23 16 6 3 0 0 0 0 0 0 0 0 0 0 0 0 0 0
3 3 3 3 6 13 10 13 16 13 13 10 10 3 6 10 10 3 3 0 6 16 16 26 19 16 0 10 0 0 0 0 0 0 0 0 0 0 0 0 0 0 0
3 3 3 3 3 3 10 10 10 16 13 16 6 6 3 6 16 13 23 13 16 0 19 23 16 13 3 6 13 6 6 3 0 0 0 0 0 0 0 0 0 0 0
3 3 3 3 3 3 3 3 10 10 13 13 6 10 10 16 13 16 26 26 29 16 26 26 29 13 6 6 6 3 3 3 0 0 0 0 0 0 0 0 0 0 0
0 0 0 3 3 3 3 3 3 6 6 3 6 3 3 16 13 13 16 19 16 19 26 19 16 13 10 3 3 3 3 3 3 0 0 0 0 0 0 0 0 0 0
0 0 0 0 3 3 3 3 3 3 3 3 3 3 3 10 13 10 6 10 10 10 13 16 13 10 10 6 3 3 3 3 3 0 0 0 0 0 0 0 3 6 0
3 0 0 0 0 0 0 0 0 0 0 0 0 3 3 3 6 3 3 6 10 3 6 10 3 10 10 10 3 0 0 0 0 0 0 0 0 0 0 0 0 3 6
0 0 0 0 0 0 0 0 0 0 0 0 0 0 0 0 0 0 6 0 0 0 3 6 6 3 6 6 0 0 0 0 0 0 0 0 0 0 0 0 0 3 3
0 0 0 0 0 0 0 0 0 0 0 0 0 0 0 0 0 0 0 0 0 0 3 0 3 3 6 6 3 0 0 0 0 0 0 0 0 0 0 0 0 0 0
0 0 0 0 0 0 0 0 0 0 0 0 0 0 0 0 0 0 3 0 0 0 0 0 3 3 3 0 0 0 0 0 0 0 0 0 0 0 0 0 0 0 0
0 0 0 0 0 0 0 0 0 0 0 0 0 0 0 0 0 0 3 0 0 0 0 0 0 3 3 3 0 0 0 0 0 0 0 0 0 0 0 0 0 0 0
0 0 0 0 0 0 0 0 0 0 0 0 0 0 0 0 0 0 0 0 0 0 0 0 3 3 3 0 0 0 0 0 0 0 0 0 0 0 0 0 0 0 0
0 0 0 0 0 0 0 0 0 0 0 0 0 0 0 0 0 0 0 0 0 0 0 0 0 0 0 0 0 0 0 0 0 0 0 0 0 0 0 0 0 0 0
0 0 0 0 0 0 0 0 0 0 0 0 0 0 0 0 0 0 0 0 0 0 0 0 0 0 0 0 0 0 0 0 0 0 0 0 0 0 0 0 0 0 0
0 0 0 0 0 0 0 0 0 0 0 0 0 0 0 0 0 0 0 0 0 0 0 0 0 0 0 0 0 0 0 0 0 0 0 0 0 0 0 0 0 0 0
0 0 0 0 0 0 0 0 0 0 0 0 0 0 0 0 0 0 0 0 0 0 0 0 0 0 0 0 0 0 0 0 0 0 0 0 0 0 0 0 0 0 0

GEFSSE_con_cape1000_168.txt.gz
Probability
39 39 61 65 65 61 65 68 71 74 74 61 61 61 45 42 42 52 45 45 48 42 39 42 32 26 19 23 10 0 0 3 10 6 10 10 6 3 3 0 0 0 3
35 42 68 68 68 65 61 61 71 77 77 74 61 45 48 45 39 48 48 45 42 35 35 35 26 26 23 13 3 0 3 3 3 3 3 3 6 6 0 3 0 0 0
32 48 61 68 68 65 58 61 65 61 68 77 68 52 45 48 42 48 48 45 42 42 35 32 29 32 23 23 6 6 3 3 3 3 3 0 0 3 0 0 0 0 3
26 35 55 61 65 61 58 58 58 58 58 61 61 58 55 58 52 45 48 48 39 45 42 42 42 32 26 19 13 6 6 3 6 0 0 0 0 0 0 0 0 0 3
16 26 45 55 58 58 58 55 58 58 58 55 58 61 55 55 52 52 48 48 45 39 35 42 42 26 23 16 13 6 13 6 3 0 0 0 0 3 0 0 0 3 0
19 29 39 45 45 42 45 45 48 52 55 55 55 65 58 48 48 48 45 45 45 42 45 42 32 23 19 16 13 10 10 3 0 0 0 0 0 3 0 0 3 3 0
19 23 29 35 35 42 42 42 42 42 42 45 45 48 55 48 39 45 45 45 42 39 39 35 32 26 16 16 16 13 10 0 0 0 0 0 0 0 0 0 3 0 3
16 23 26 26 26 32 32 32 32 35 35 39 35 39 42 58 58 55 58 48 42 39 39 32 26 32 19 13 13 16 10 0 0 0 0 0 0 0 0 0 0 3 3
16 16 19 23 23 26 23 26 29 29 29 29 35 26 26 32 45 58 55 52 45 42 39 39 35 32 19 19 16 13 3 0 0 0 0 0 0 0 0 0 0 3 3
13 16 16 13 13 16 19 23 23 19 26 26 26 13 13 13 19 39 42 48 48 48 45 35 35 32 26 13 10 6 3 0 0 0 0 0 0 3 3 0 0 3 0
6 6 10 13 13 13 10 10 10 10 13 16 13 0 0 0 0 3 3 13 26 48 42 32 32 29 19 13 10 3 0 0 0 0 0 0 3 3 3 3 0 3 3
6 6 6 6 6 6 10 10 10 10 10 6 6 0 0 0 0 0 0 0 6 13 16 16 23 16 10 0 0 0 0 0 0 0 0 0 3 3 3 0 0 0 3
6 6 6 6 3 3 3 3 6 10 10 6 3 3 0 0 0 0 0 0 0 0 3 3 6 3 0 0 0 0 0 0 0 0 0 0 3 3 0 0 0 0 0
3 3 3 3 3 3 3 3 3 0 0 3 6 3 3 0 0 0 0 0 3 3 0 0 0 0 0 0 0 0 0 0 0 0 0 0 3 6 0 0 0 0 0
3 3 3 3 3 3 3 0 0 0 0 0 0 3 3 0 0 0 0 0 3 3 0 0 3 0 0 0 0 3 0 3 0 0 0 0 0 3 3 3 3 0 0
0 0 0 3 3 3 3 0 0 0 0 0 0 0 0 0 0 0 0 0 0 3 0 0 0 0 0 0 0 0 0 0 0 0 0 0 0 0 0 0 3 3 0
3 3 0 0 0 0 0 0 0 0 0 0 0 0 0 0 0 0 0 0 0 0 0 0 0 0 0 0 0 0 0 0 0 0 0 0 0 0 0 0 0 3 0
0 0 0 0 0 0 0 0 0 0 0 0 0 0 0 0 0 0 0 0 0 0 0 0 0 0 0 0 0 0 0 0 0 0 0 0 0 0 0 0 0 3 3
0 0 0 0 0 0 0 0 0 0 0 0 0 0 0 0 0 0 0 0 0 0 0 0 0 0 0 0 0 0 0 0 0 0 0 0 0 0 0 0 0 0 0
0 0 0 0 0 0 0 0 0 0 0 0 0 0 0 0 0 0 0 0 0 0 0 0 0 0 0 0 0 0 0 0 0 0 0 0 0 0 0 0 0 0 0
0 0 0 0 0 0 0 0 0 0 0 0 0 0 0 0 0 0 0 0 0 0 0 0 0 0 0 0 0 0 0 0 0 0 0 0 0 0 0 0 0 0 0
0 0 0 0 0 0 0 0 0 0 0 0 0 0 0 0 0 0 0 0 0 0 0 0 0 0 0 0 0 0 0 0 0 0 0 0 0 0 0 0 0 0 0
0 0 0 0 0 0 0 0 0 0 0 0 0 0 0 0 0 0 0 0 0 0 0 0 0 0 0 0 0 0 0 0 0 0 0 0 0 0 0 0 0 0 0
0 0 0 0 0 0 0 0 0 0 0 0 0 0 0 0 0 0 0 0 0 0 0 0 0 0 0 0 0 0 0 0 0 0 0 0 0 0 0 0 0 0 0
0 0 0 0 0 0 0 0 0 0 0 0 0 0 0 0 0 0 0 0 0 0 0 0 0 0 0 0 0 0 0 0 0 0 0 0 0 0 0 0 0 0 0
0 0 0 0 0 0 0 0 0 0 0 0 0 0 0 0 0 0 0 0 0 0 0 0 0 0 0 0 0 0 0 0 0 0 0 0 0 0 0 0 0 0 0

GEFSSE_con_cape1000_174.txt.gz
Probability
29 39 65 68 61 61 65 58 65 65 58 61 55 52 48 48 48 48 48 52 45 48 39 39 35 32 23 16 13 10 16 16 16 13 16 13 13 6 3 3 3 0 3
32 52 68 68 65 65 65 65 58 55 55 55 52 52 52 52 48 48 52 48 45 39 35 32 32 29 23 19 13 13 13 10 16 10 3 0 3 3 0 3 3 0 3
42 55 61 68 65 65 65 61 52 52 48 48 42 45 45 48 45 48 48 48 45 45 39 35 26 26 19 6 10 16 13 10 3 0 0 0 0 0 0 0 0 3 3
42 52 58 65 61 61 61 61 55 58 52 48 45 45 42 42 45 42 45 48 42 42 42 35 26 26 19 13 10 6 10 10 6 0 0 0 0 0 0 0 6 0 3
32 39 58 58 58 58 58 61 61 61 55 55 45 48 42 42 39 42 42 39 42 45 45 39 32 26 23 13 13 10 10 10 3 0 0 0 0 0 0 3 3 0 0
26 35 52 58 55 52 52 55 55 55 52 52 52 48 48 39 35 35 39 32 35 35 39 35 29 19 19 13 13 13 10 16 0 0 0 0 0 3 3 0 0 0 0
19 32 45 55 55 52 48 48 52 48 45 48 48 45 42 42 39 35 45 39 32 32 39 35 26 19 19 10 10 10 13 0 0 0 0 0 0 3 0 0 0 3 0
13 23 35 48 48 52 48 45 45 45 48 48 45 45 39 39 45 42 48 35 32 29 32 32 35 23 19 10 10 6 3 0 0 0 0 0 0 3 0 0 3 3 0
19 19 19 19 26 32 35 39 42 39 42 39 35 32 32 35 35 42 45 48 32 32 29 29 23 29 26 16 6 6 3 0 0 0 0 0 0 3 0 0 3 3 3
10 10 16 19 19 19 16 23 23 26 32 35 35 26 19 26 26 32 29 39 45 39 32 29 26 32 32 26 6 3 3 0 0 0 0 0 0 6 3 3 3 3 3
6 6 10 10 10 10 10 13 13 23 19 16 13 10 3 3 10 13 13 6 19 32 32 32 26 26 23 6 6 0 0 0 0 0 0 0 3 10 13 0 0 0 0
6 6 6 6 6 6 3 3 3 3 3 3 6 6 0 0 0 3 6 3 6 10 13 26 23 16 6 0 0 0 0 0 0 0 0 0 3 10 6 0 0 0 3
3 6 6 6 6 3 3 3 3 3 0 0 0 0 0 0 0 0 0 0 0 3 3 6 10 3 3 0 0 0 0 0 0 0 0 0 3 6 6 6 0 0 3
3 6 6 6 3 3 3 3 3 0 0 0 0 0 0 0 0 0 0 0 0 0 0 0 0 0 0 0 0 0 0 0 0 0 0 0 3 6 6 6 0 0 0
3 6 3 3 3 3 3 3 3 0 0 0 0 0 0 0 0 0 0 0 0 0 0 0 0 0 0 0 0 0 0 0 0 0 0 0 0 6 10 3 3 0 0
0 0 0 3 3 3 0 0 0 0 0 0 0 0 0 0 0 0 0 0 0 0 0 0 0 0 3 0 0 0 0 0 0 0 0 0 0 3 6 6 6 3 0
3 0 0 0 0 0 0 0 0 0 0 0 0 0 0 0 0 0 0 0 0 0 0 0 0 0 0 0 0 0 0 0 0 0 0 0 0 0 0 6 3 6 3
0 0 0 0 0 0 0 0 0 0 0 0 0 0 0 0 0 0 0 0 0 0 0 0 0 0 0 0 0 0 0 0 0 0 0 0 0 0 0 0 0 6 6
0 0 0 0 0 0 0 0 0 0 0 0 0 0 0 0 0 0 0 0 0 0 0 0 0 0 0 0 0 0 0 0 0 0 0 0 0 0 0 0 0 0 0
0 0 0 0 0 0 0 0 0 0 0 0 0 0 0 0 0 0 0 0 0 0 0 0 0 0 0 0 0 0 0 0 0 0 0 0 0 0 0 0 0 0 0
0 0 0 0 0 0 0 0 0 0 0 0 0 0 0 0 0 0 0 0 0 0 0 0 0 0 0 0 0 0 0 0 0 0 0 0 0 0 0 0 0 0 0
0 0 0 0 0 0 0 0 0 0 0 0 0 0 0 0 0 0 0 0 0 0 0 0 0 0 0 0 0 0 0 0 0 0 0 0 0 0 0 0 0 0 0
0 0 0 0 0 0 0 0 0 0 0 0 0 0 0 0 0 0 0 0 0 0 0 0 0 0 0 0 0 0 0 0 0 0 0 0 0 0 0 0 0 0 0
0 0 0 0 0 0 0 0 0 0 0 0 0 0 0 0 0 0 0 0 0 0 0 0 0 0 0 0 0 0 0 0 0 0 0 0 0 0 0 0 0 0 0
0 0 0 0 0 0 0 0 0 0 0 0 0 0 0 0 0 0 0 0 0 0 0 0 0 0 0 0 0 0 0 0 0 0 0 0 0 0 0 0 0 0 0
0 0 0 0 0 0 0 0 0 0 0 0 0 0 0 0 0 0 0 0 0 0 0 0 0 0 0 0 0 0 0 0 0 0 0 0 0 0 0 0 0 0 0

GEFSSE_con_cape1000_180.txt.gz
Probability
16 35 58 58 58 52 48 45 55 61 52 55 48 45 52 48 45 45 52 52 45 42 35 32 32 26 23 19 13 13 16 19 10 16 13 13 10 6 3 3 3 0 13
16 45 61 61 58 58 55 52 45 48 39 42 42 45 45 48 48 48 42 39 42 42 35 32 32 19 19 16 13 10 13 13 19 16 10 10 6 6 3 3 3 0 6
26 45 61 65 61 61 55 48 48 45 42 42 42 42 42 45 45 48 45 42 39 39 32 29 23 16 16 13 13 13 10 13 13 10 3 0 0 3 3 3 3 3 6
39 45 55 61 61 55 55 55 48 48 52 42 42 39 39 42 42 42 39 45 48 42 32 19 16 19 13 6 10 6 6 13 16 3 0 0 0 3 3 0 3 3 0
39 45 55 58 58 55 58 55 48 55 52 45 45 42 35 35 35 32 35 39 39 42 32 26 23 19 16 10 6 3 6 6 3 0 0 0 0 0 0 0 0 0 3
35 42 45 55 55 55 55 52 52 52 52 48 48 42 32 32 32 29 29 29 32 32 32 26 19 16 16 13 6 3 6 3 0 0 0 0 0 0 0 0 0 3 0
26 39 39 48 55 55 55 52 52 52 52 52 45 48 42 32 32 35 23 26 29 32 23 32 23 16 16 13 6 6 6 0 0 0 0 0 0 0 0 0 0 3 3
23 23 39 45 42 42 48 48 48 45 45 45 45 42 39 39 29 29 23 26 26 29 23 19 19 23 16 13 6 6 3 0 0 0 0 0 0 0 0 0 3 3 3
16 16 23 29 35 39 42 45 45 45 42 42 45 42 39 35 35 32 35 26 26 26 26 23 19 19 19 16 13 6 3 0 0 0 0 0 0 0 0 3 3 6 6
10 10 10 13 19 23 29 32 26 32 32 35 32 26 16 16 26 29 29 29 23 26 23 26 26 23 19 10 10 3 0 0 0 0 0 0 0 0 3 0 3 3 3
10 10 10 10 10 13 13 13 13 19 19 26 16 10 10 10 6 6 10 10 13 23 19 26 26 26 16 3 3 0 0 0 0 0 0 0 3 3 0 0 3 3 3
10 10 10 6 10 6 6 6 6 6 6 6 3 0 0 3 6 3 3 3 3 6 6 13 16 13 6 0 0 0 0 0 0 0 0 0 3 3 3 3 6 6 3
6 6 6 6 3 3 3 0 0 0 0 3 3 0 0 0 0 0 3 3 3 3 3 6 3 3 0 0 0 0 0 0 0 0 0 0 6 3 6 10 10 10 6
6 6 6 3 3 3 0 3 0 0 0 0 3 0 0 0 0 0 0 0 0 0 0 3 3 0 0 0 0 0 0 0 0 0 0 0 0 6 6 10 6 10 6
6 6 3 3 3 3 0 3 3 0 0 0 0 0 0 0 0 0 0 0 0 0 0 0 3 0 0 0 0 0 0 0 0 0 0 0 0 3 6 6 10 6 10
6 6 3 3 3 3 0 0 3 0 0 0 0 0 0 0 0 0 0 0 0 0 0 0 0 0 0 0 0 0 0 0 0 0 0 0 0 0 3 3 10 13 10
3 3 3 3 3 3 3 3 3 3 0 0 0 0 0 0 0 0 0 0 0 0 0 0 0 0 0 0 0 0 0 0 0 0 0 0 0 0 0 3 6 6 6
0 0 0 0 3 0 0 0 0 0 0 0 0 0 0 0 0 0 0 0 0 0 0 0 0 0 0 0 0 0 0 0 0 0 0 0 0 0 0 3 3 6 6
0 0 0 0 0 0 0 0 0 0 0 0 0 0 0 0 0 0 0 0 0 0 0 0 0 0 0 0 0 0 0 0 0 0 0 0 0 0 0 0 0 0 0
0 0 0 0 0 0 0 0 0 0 0 0 0 0 0 0 0 0 0 0 0 0 0 0 0 0 0 0 0 0 0 0 0 0 0 0 0 0 0 0 0 0 0
0 0 0 0 0 0 0 0 0 0 0 0 0 0 0 0 0 0 0 0 0 0 0 0 0 0 0 0 0 0 0 0 0 0 0 0 0 0 0 0 0 0 0
0 0 0 0 0 0 0 0 0 0 0 0 0 0 0 0 0 0 0 0 0 0 0 0 0 0 0 0 0 0 0 0 0 0 0 0 0 0 0 0 0 0 0
0 0 0 0 0 0 0 0 0 0 0 0 0 0 0 0 0 0 0 0 0 0 0 0 0 0 0 0 0 0 0 0 0 0 0 0 0 0 0 0 0 0 0
0 0 0 0 0 0 0 0 0 0 0 0 0 0 0 0 0 0 0 0 0 0 0 0 0 0 0 0 0 0 0 0 0 0 0 0 0 0 0 0 0 0 0
0 0 0 0 0 0 0 0 0 0 0 0 0 0 0 0 0 0 0 0 0 0 0 0 0 0 0 0 0 0 0 0 0 0 0 0 0 0 0 0 0 0 0
0 0 0 0 0 0 0 0 0 0 0 0 0 0 0 0 0 0 0 0 0 0 0 0 0 0 0 0 0 0 0 0 0 0 0 0 0 0 0 0 0 0 0

GEFSSE_con_cape1000_186.txt.gz
Probability
32 42 52 55 58 55 52 61 58 58 61 55 55 45 45 48 45 48 42 39 42 39 35 32 23 23 23 23 16 13 16 13 13 10 16 16 10 6 10 10 13 6 13
29 35 52 55 58 55 55 52 52 52 55 48 52 52 48 45 45 48 45 39 39 39 39 32 26 26 16 10 6 10 10 10 6 16 10 6 6 6 6 6 13 6 10
29 35 45 65 61 61 55 55 45 48 45 45 45 42 45 45 45 45 42 39 39 39 42 32 26 23 13 10 10 3 6 10 10 13 3 0 0 6 6 10 3 6 3
26 39 42 65 65 58 55 52 48 45 42 45 45 45 42 39 39 42 39 35 35 39 32 26 23 16 13 10 6 3 3 6 10 6 0 0 0 6 3 3 3 0 0
32 42 48 61 55 55 58 55 42 35 39 39 42 45 45 45 39 39 42 39 32 39 35 26 16 13 13 13 3 3 3 6 6 3 0 0 0 6 3 3 3 3 3
42 48 48 55 55 55 52 55 52 42 42 39 39 39 39 39 35 29 32 32 32 26 32 26 16 13 13 10 6 3 6 3 0 0 0 0 0 3 3 0 3 3 3
39 35 35 48 45 48 48 48 48 48 45 42 39 39 35 35 35 29 29 26 23 23 23 16 16 16 13 10 10 6 6 3 0 0 0 0 0 0 3 0 0 0 3
29 32 32 39 42 42 42 42 42 42 42 39 35 35 32 32 32 26 23 26 23 19 23 26 10 16 13 10 10 10 3 0 0 0 0 0 0 0 3 0 0 3 3
23 29 29 32 32 35 39 42 39 42 42 42 42 42 39 42 35 26 23 23 23 23 23 19 19 16 16 13 10 10 0 0 0 0 0 0 0 0 0 0 0 3 3
23 23 23 29 26 29 29 29 29 29 26 32 32 26 19 23 26 26 16 19 19 23 23 23 16 13 16 16 10 3 0 0 0 3 0 0 0 0 0 3 0 3 3
10 16 19 19 26 23 23 16 23 19 19 19 19 13 10 23 19 16 10 10 13 19 19 16 13 13 10 6 6 3 0 3 3 3 3 0 0 0 0 3 3 0 3
10 13 16 16 16 16 10 19 26 19 23 19 19 16 13 19 13 13 3 6 10 10 10 13 10 10 3 3 0 0 6 6 10 6 6 0 3 0 0 6 6 3 3
6 6 13 13 13 13 10 13 16 13 19 19 19 13 13 10 13 10 10 3 10 3 10 13 10 13 10 6 10 3 0 0 3 3 3 0 6 6 3 3 10 6 10
6 6 10 13 13 10 13 13 13 16 16 16 13 13 13 13 16 13 13 13 13 13 13 13 13 10 10 3 0 3 3 3 0 0 0 0 3 6 10 10 6 3 10
6 6 6 10 10 6 10 13 13 13 13 13 10 10 10 10 10 16 13 16 16 13 13 10 3 3 3 0 0 0 0 3 3 0 0 0 0 3 6 13 13 13 10
6 6 6 10 10 6 6 6 6 10 10 6 6 6 6 6 6 6 6 6 13 13 13 13 10 6 3 3 0 0 0 0 0 0 0 0 0 0 3 6 13 10 13
3 3 6 10 10 10 6 6 6 6 3 3 6 6 6 6 6 6 6 6 6 6 13 13 6 3 3 3 3 0 0 0 0 0 0 0 0 0 0 3 3 10 10
3 3 3 3 10 10 6 3 3 3 3 3 3 3 6 6 6 6 6 6 6 6 6 6 6 6 6 3 0 0 0 0 0 0 0 0 0 0 0 0 0 3 6
3 3 3 3 6 3 3 3 3 3 3 3 3 6 6 6 6 6 6 6 3 6 3 3 0 0 3 3 3 0 0 0 0 0 0 0 0 0 0 0 0 0 0
3 3 3 3 3 3 3 0 0 0 0 3 3 3 3 3 3 3 3 3 0 3 3 6 0 0 0 0 0 0 0 0 0 3 0 0 0 0 0 0 0 0 0
3 3 3 3 0 0 0 0 0 0 0 0 0 0 3 3 3 3 3 3 3 3 3 0 0 0 0 0 0 0 0 0 0 0 0 0 0 0 0 0 0 0 0
3 3 0 0 0 0 0 0 0 0 0 0 0 0 3 3 3 0 3 3 0 0 0 0 0 0 0 0 0 0 0 0 0 0 0 0 0 0 0 0 0 0 0
0 0 0 0 0 0 0 0 0 0 0 0 0 0 0 0 0 0 0 0 0 0 0 0 0 0 0 0 0 0 0 0 0 0 0 0 0 0 0 0 0 0 0
0 0 0 0 0 0 0 0 0 0 0 0 0 0 0 0 0 0 0 0 0 0 0 0 0 0 0 0 0 0 0 0 0 0 0 0 0 0 0 0 0 0 0
0 0 0 0 0 0 0 0 0 0 0 0 0 0 0 0 0 0 0 0 0 0 0 0 0 0 0 0 0 0 0 0 0 0 0 0 0 0 0 0 0 0 0
0 0 0 0 0 0 0 0 0 0 0 0 0 0 0 0 0 0 0 0 0 0 0 0 0 0 0 0 0 0 0 0 0 0 0 0 0 0 0 0 0 0 0

GEFSSE_con_cape1000_192.txt.gz
Probability
26 26 61 61 71 74 71 68 61 61 55 55 55 52 39 42 42 39 39 39 42 39 26 29 23 23 16 16 13 16 16 13 16 13 16 10 6 10 10 16 19 6 16
26 26 61 61 58 61 61 58 58 58 55 55 55 52 48 39 39 39 35 48 39 39 35 39 29 23 19 16 6 3 6 13 10 6 6 3 6 10 13 16 16 6 6
29 29 48 55 58 58 55 58 55 52 48 55 48 45 48 42 39 35 35 39 39 39 32 32 29 29 16 16 6 3 3 3 13 6 3 0 3 10 6 13 13 10 10
26 35 42 55 52 55 55 48 42 42 45 48 48 45 42 39 39 39 35 39 35 35 35 29 26 23 16 13 6 3 6 3 6 3 0 0 0 10 10 6 3 6 6
19 26 42 55 52 45 42 45 42 42 45 39 42 42 39 39 32 35 35 32 35 35 35 32 19 16 19 10 10 6 3 3 3 0 0 0 0 10 10 10 3 0 0
23 29 39 48 45 42 42 35 45 42 42 39 35 35 42 42 35 35 29 32 32 35 35 26 16 16 13 10 10 6 6 6 0 0 0 0 0 10 6 3 6 3 3
29 29 35 48 42 42 42 42 35 42 39 39 35 32 32 35 39 35 29 29 26 29 29 23 19 13 13 10 10 10 6 3 0 0 0 0 0 10 13 3 3 0 3
19 23 29 45 39 39 35 35 35 35 35 35 35 39 42 39 35 19 23 23 26 26 26 19 16 16 16 13 13 13 6 3 0 0 0 0 0 10 13 6 6 3 3
23 19 23 23 26 29 29 29 32 32 32 32 35 35 32 32 35 16 16 16 19 19 19 10 10 13 19 19 16 13 6 0 0 0 0 0 0 3 10 10 3 3 3
16 19 19 19 19 23 19 23 23 23 19 23 35 23 19 16 16 16 16 16 16 16 16 13 6 10 10 10 10 6 0 0 0 0 0 0 0 0 3 10 10 6 3
13 16 19 19 19 23 16 16 16 10 10 10 13 3 6 6 6 6 6 6 13 13 13 13 6 6 6 6 6 3 0 0 0 0 0 0 3 6 3 6 10 10 3
10 10 13 19 16 13 13 6 6 6 3 3 3 3 0 3 3 3 3 3 6 6 6 6 6 6 3 3 3 0 0 0 0 0 0 3 6 10 3 3 3 10 10
3 3 6 6 6 10 3 6 6 6 3 3 3 6 3 3 0 0 0 0 0 0 0 0 0 3 3 3 3 0 0 0 0 0 0 0 10 10 10 3 6 6 13
3 3 3 6 10 6 3 0 10 3 0 3 3 3 3 3 0 0 0 0 0 0 0 3 0 0 0 0 0 0 0 0 0 0 0 0 3 10 10 10 10 6 13
3 3 3 3 6 6 6 3 3 3 0 0 0 0 0 3 3 0 0 0 3 3 3 3 3 0 0 0 0 0 0 0 0 0 0 0 0 3 10 6 6 10 10
3 3 3 3 3 6 6 6 3 3 0 0 3 0 0 0 3 3 3 3 3 0 0 3 3 0 0 0 0 0 0 0 0 0 0 0 0 0 3 0 0 3 10
3 3 3 3 3 3 6 6 6 6 0 0 6 3 0 3 3 3 3 3 0 0 0 0 3 3 3 0 0 0 0 0 0 0 0 0 0 0 0 3 0 0 0
3 3 3 3 3 3 3 3 3 3 0 0 3 3 3 3 3 3 3 3 0 0 0 0 3 3 3 3 0 0 0 0 0 0 0 0 0 0 0 0 0 3 0
3 3 3 3 3 3 3 3 3 3 3 3 3 3 3 3 6 3 3 0 0 0 0 0 3 0 0 0 0 0 0 0 0 0 0 0 0 0 0 0 0 0 0
3 3 3 3 3 3 3 3 0 3 3 3 3 3 3 3 6 6 6 0 0 0 0 0 0 0 0 0 0 0 0 0 0 0 0 0 0 0 0 0 0 0 0
3 3 3 3 3 3 3 0 0 0 0 0 3 3 3 3 0 0 0 0 0 0 0 0 0 0 0 0 0 0 0 0 0 0 0 0 0 0 0 0 0 0 0
3 3 3 3 3 3 0 0 0 0 0 0 0 0 0 0 0 0 0 3 0 0 0 0 0 0 0 0 0 0 0 0 0 0 0 0 0 0 0 0 0 0 0
3 3 3 3 3 0 0 0 0 0 0 0 0 0 0 0 0 0 0 0 0 0 0 0 0 0 0 0 0 0 0 0 0 0 0 0 0 0 0 0 0 0 0
0 0 3 3 0 0 0 0 0 0 0 0 0 0 0 0 0 0 0 0 0 0 0 0 0 0 0 0 0 0 0 0 0 0 0 0 0 0 0 0 0 0 0
0 0 0 0 0 0 0 0 0 0 0 0 0 0 0 0 0 0 0 0 0 0 0 0 0 0 0 0 0 0 0 0 0 0 0 0 0 0 0 0 0 0 0
0 0 0 0 0 0 0 0 0 0 0 0 0 0 0 0 0 0 0 0 0 0 0 0 0 0 0 0 0 0 0 0 0 0 0 0 0 0 0 0 0 0 0

GEFSSE_con_cape1000_198.txt.gz
Probability
10 39 61 61 61 58 65 65 68 68 61 58 52 52 48 48 39 35 32 32 29 29 32 32 32 26 29 29 26 23 19 19 16 16 16 16 13 23 19 16 16 3 10
16 39 61 61 61 55 52 58 58 55 55 58 52 52 45 42 42 42 39 35 39 39 32 32 29 29 26 16 16 16 13 16 13 6 3 3 13 19 16 16 13 6 13
19 35 48 58 58 58 55 48 48 55 58 58 48 48 45 45 42 45 45 42 42 45 45 35 39 23 19 10 13 10 10 10 3 0 0 0 10 16 13 13 16 13 10
19 35 42 52 55 55 48 42 48 42 48 48 45 42 45 48 45 42 39 42 42 42 39 32 26 19 19 13 13 10 6 0 0 0 0 0 0 10 10 16 13 13 10
16 29 39 55 45 45 45 42 42 35 39 45 45 42 35 42 45 39 39 39 39 35 29 26 26 23 13 13 16 10 3 0 3 0 0 0 0 10 6 13 6 3 10
13 23 42 48 42 42 35 42 42 35 35 39 45 42 32 39 39 42 39 39 39 32 29 26 23 23 16 10 10 6 6 0 0 0 0 0 0 6 3 13 3 3 6
16 23 32 42 45 42 39 35 32 39 32 32 39 35 35 35 32 26 26 35 32 32 29 29 23 23 16 13 6 10 13 0 0 0 0 0 3 6 6 3 6 10 10
23 23 29 39 42 42 39 39 32 32 32 32 35 26 35 35 32 29 26 23 29 26 26 26 23 16 10 10 10 10 10 3 0 0 0 0 3 6 6 3 3 6 10
19 26 26 29 32 32 35 35 35 32 32 29 29 32 29 26 26 19 16 16 16 19 16 13 16 13 10 10 10 10 3 0 0 0 0 0 3 10 10 6 3 3 6
16 16 23 19 23 23 23 26 26 23 23 19 23 13 6 10 10 10 13 13 16 16 13 13 10 10 10 10 10 10 3 0 0 0 0 0 3 13 13 10 6 3 3
6 6 13 16 16 13 10 13 10 16 16 13 3 0 3 3 3 3 3 3 10 10 6 10 10 6 6 6 6 3 0 0 0 0 0 0 3 10 10 13 10 6 3
3 3 10 10 10 10 10 10 10 10 3 3 0 0 0 0 0 0 0 0 3 3 3 6 6 3 3 3 3 0 0 0 0 0 0 0 3 6 6 6 10 6 6
3 3 3 3 6 3 0 3 0 0 3 0 0 0 0 0 0 0 0 0 0 3 3 3 3 0 3 3 3 0 0 0 0 0 0 0 3 6 10 10 3 0 6
3 3 3 3 3 0 0 0 0 0 0 3 0 0 0 0 0 0 0 0 0 0 0 0 0 0 0 0 0 0 0 0 0 0 0 0 3 6 10 6 6 6 3
3 3 3 3 0 0 0 0 0 0 0 0 0 0 0 0 0 0 0 0 0 0 0 0 0 0 0 0 0 0 0 0 0 0 0 0 0 6 6 6 3 6 6
0 3 3 0 0 0 0 0 0 0 0 0 0 0 0 0 0 0 0 0 0 0 0 0 0 0 0 0 0 0 0 0 0 0 0 0 0 0 3 3 3 3 6
0 3 3 3 0 0 0 0 0 0 0 0 0 0 0 0 0 0 0 0 0 0 0 0 0 0 0 0 0 0 0 0 0 0 0 0 0 0 0 0 3 0 3
0 0 3 3 0 0 0 0 0 0 0 0 0 0 0 0 0 0 0 0 0 0 0 0 0 0 0 0 0 0 0 0 0 0 0 0 0 0 0 0 0 0 0
0 0 3 3 0 0 0 0 0 0 0 0 0 0 0 0 0 0 0 0 0 0 0 0 0 0 0 0 0 0 0 0 0 0 0 0 0 0 0 0 0 0 0
0 0 3 3 3 3 0 0 0 0 0 0 0 0 0 0 0 0 0 0 0 0 0 0 0 0 0 0 0 0 0 0 0 0 0 0 0 0 0 0 0 0 0
0 0 0 0 0 0 0 0 0 0 0 0 0 0 0 0 0 0 0 0 0 0 0 0 0 0 0 0 0 0 0 0 0 0 0 0 0 0 0 0 0 0 0
0 0 0 0 0 0 0 0 0 0 0 0 0 0 0 0 0 0 0 0 0 0 0 0 0 0 0 0 0 0 0 0 0 0 0 0 0 0 0 0 0 0 0
0 0 0 0 0 0 0 0 0 0 0 0 0 0 0 0 0 0 0 0 0 0 0 0 0 0 0 0 0 0 0 0 0 0 0 0 0 0 0 0 0 0 0
0 0 0 0 0 0 0 0 0 0 0 0 0 0 0 0 0 0 0 0 0 0 0 0 0 0 0 0 0 0 0 0 0 0 0 0 0 0 0 0 0 0 0
0 0 0 0 0 0 0 0 0 0 0 0 0 0 0 0 0 0 0 0 0 0 0 0 0 0 0 0 0 0 0 0 0 0 0 0 0 0 0 0 0 0 0
0 0 0 0 0 0 0 0 0 0 0 0 0 0 0 0 0 0 0 0 0 0 0 0 0 0 0 0 0 0 0 0 0 0 0 0 0 0 0 0 0 0 0

GEFSSE_con_cape1000_204.txt.gz
Probability
0 13 61 52 55 55 52 52 48 55 52 52 52 48 48 52 48 39 35 32 32 35 32 32 39 26 23 26 19 19 16 16 13 16 16 16 16 16 10 10 10 3 10
3 16 58 55 52 52 52 52 52 48 42 42 48 52 45 52 45 45 42 39 29 39 35 39 32 26 29 26 26 16 19 16 13 13 13 10 16 16 13 13 10 3 6
3 35 48 55 55 55 58 55 52 52 45 39 39 42 52 45 45 42 39 39 35 39 42 35 29 29 29 26 19 13 13 13 10 10 3 0 6 13 13 13 16 10 6
13 29 45 52 55 55 58 52 52 48 42 42 39 35 35 45 42 45 45 42 45 39 39 35 26 23 23 19 16 10 13 13 6 3 0 0 0 10 10 13 16 10 6
19 26 35 55 52 55 45 42 42 39 42 39 39 39 32 42 42 45 42 45 45 35 32 32 29 23 16 16 13 6 10 3 3 0 0 0 0 6 6 3 13 10 10
23 26 29 48 48 48 45 39 39 39 42 39 39 35 35 35 35 39 39 42 39 35 29 32 29 16 16 16 16 10 3 3 0 0 0 0 0 3 6 3 10 10 6
23 26 26 42 48 42 45 39 35 35 39 35 39 35 29 32 29 32 39 39 35 32 35 29 26 16 16 19 13 10 10 0 0 0 0 0 0 10 0 3 6 3 3
19 26 23 32 32 42 39 35 35 32 35 39 35 35 32 29 26 29 29 26 32 32 32 29 26 16 13 16 13 10 6 0 0 0 0 0 0 10 6 6 3 6 6
10 19 19 23 19 26 32 32 32 29 32 35 35 29 26 29 26 26 29 29 23 19 23 26 19 23 10 13 16 10 6 0 0 0 0 0 3 6 6 0 0 0 6
10 10 10 13 16 16 16 26 29 23 26 26 26 19 3 6 10 10 13 16 16 10 13 13 16 10 10 16 10 10 3 0 0 0 0 0 3 3 6 3 0 0 3
10 6 6 10 10 10 13 10 10 13 6 6 3 0 0 0 3 3 3 3 3 6 3 10 13 10 6 6 6 3 0 0 0 0 0 0 3 6 3 3 3 0 0
3 6 3 3 3 6 3 3 6 6 3 3 0 0 0 0 0 0 0 0 0 0 0 3 3 3 3 3 3 0 0 0 0 0 0 0 6 6 3 6 6 6 6
3 3 3 3 3 3 0 3 3 6 6 0 0 0 0 0 0 0 0 0 0 0 0 0 0 3 3 3 3 0 0 0 0 0 0 0 3 3 3 3 10 6 3
3 3 3 3 3 3 3 3 3 3 3 0 0 0 0 0 0 0 0 0 0 0 0 0 0 0 0 3 3 0 0 0 0 0 0 0 3 3 3 3 0 3 0
0 0 3 3 3 3 3 3 3 3 0 0 0 0 0 0 0 0 0 0 0 0 0 0 0 0 0 0 0 0 0 0 0 0 0 0 0 3 3 3 3 0 0
0 0 3 0 3 3 3 0 0 0 0 0 0 0 0 0 0 0 0 0 0 0 0 0 0 0 0 0 0 0 0 0 0 0 0 0 0 0 0 3 3 3 3
0 3 3 0 0 0 0 0 0 0 0 0 0 0 0 0 0 0 0 0 0 0 0 0 0 0 0 0 0 0 0 0 0 0 0 0 0 0 0 3 3 6 10
0 0 0 0 0 0 0 0 0 0 0 0 0 0 0 0 0 0 0 0 0 0 0 0 0 0 0 0 0 0 0 0 0 0 0 0 0 0 0 0 0 3 3
0 0 0 0 0 0 0 0 0 0 0 0 0 0 0 0 0 0 0 0 0 0 0 0 0 0 0 0 0 0 0 0 0 0 0 0 0 0 0 0 0 0 0
0 0 0 0 0 0 0 0 0 0 0 0 0 0 0 0 0 0 0 0 0 0 0 0 0 0 0 0 0 0 0 0 0 0 0 0 0 0 0 0 0 0 0
0 0 0 0 0 0 0 0 0 0 0 0 0 0 0 0 0 0 0 0 0 0 0 0 0 0 0 0 0 0 0 0 0 0 0 0 0 0 0 0 0 0 0
0 0 0 0 0 0 0 0 0 0 0 0 0 0 0 0 0 0 0 0 0 0 0 0 0 0 0 0 0 0 0 0 0 0 0 0 0 0 0 0 0 0 0
0 0 0 0 0 0 0 0 0 0 0 0 0 0 0 0 0 0 0 0 0 0 0 0 0 0 0 0 0 0 0 0 0 0 0 0 0 0 0 0 0 0 0
0 0 0 0 0 0 0 0 0 0 0 0 0 0 0 0 0 0 0 0 0 0 0 0 0 0 0 0 0 0 0 0 0 0 0 0 0 0 0 0 0 0 0
0 0 0 0 0 0 0 0 0 0 0 0 0 0 0 0 0 0 0 0 0 0 0 0 0 0 0 0 0 0 0 0 0 0 0 0 0 0 0 0 0 0 0
0 0 0 0 0 0 0 0 0 0 0 0 0 0 0 0 0 0 0 0 0 0 0 0 0 0 0 0 0 0 0 0 0 0 0 0 0 0 0 0 0 0 0

GEFSSE_con_cape1000_210.txt.gz
Probability
3 16 42 55 55 58 61 61 58 58 55 55 55 52 55 45 45 45 45 45 45 42 42 42 39 32 29 19 19 16 16 19 19 16 16 23 13 10 10 13 16 6 13
3 13 48 52 55 58 65 61 61 55 52 48 45 48 52 48 45 45 42 48 48 42 42 39 35 26 29 23 19 19 19 16 10 13 13 13 10 10 3 6 10 10 13
3 16 39 52 52 55 61 58 58 52 48 45 45 48 48 42 48 42 48 39 42 45 42 35 32 23 23 23 19 19 16 13 10 10 6 6 6 10 6 10 13 13 19
3 23 26 42 45 55 58 55 55 48 45 42 42 45 48 45 45 48 39 35 42 42 39 32 32 26 29 26 19 16 16 13 13 6 6 6 3 10 6 10 10 16 16
10 26 32 39 45 52 48 45 42 48 45 42 42 42 39 42 42 42 39 32 32 39 35 26 29 26 26 19 16 16 16 13 3 3 3 6 6 6 10 10 10 13 13
13 23 29 42 42 45 45 42 42 42 39 42 42 42 39 39 39 32 35 32 32 32 26 26 23 23 26 19 16 16 16 6 3 3 3 10 6 6 6 6 10 10 6
10 23 26 29 35 42 39 32 39 42 45 42 42 42 39 35 29 32 32 29 32 32 26 23 19 23 23 23 19 10 6 3 3 3 3 6 6 6 6 6 6 6 13
13 19 19 26 29 32 32 32 35 39 42 42 35 35 35 29 29 29 26 32 32 26 26 19 16 23 23 19 16 13 6 3 3 3 3 3 3 10 6 3 6 3 0
13 19 16 19 19 23 19 26 29 39 39 39 39 29 29 32 29 29 29 26 29 23 26 19 16 19 19 13 16 13 3 3 3 3 0 0 0 10 3 3 3 0 0
13 19 19 19 19 16 16 10 16 23 29 29 29 19 13 16 23 23 16 19 19 16 16 10 16 10 6 10 13 13 3 0 3 0 0 0 0 6 6 0 0 0 0
13 19 13 13 16 16 13 6 6 10 6 3 3 0 0 10 10 6 0 6 10 10 10 6 3 3 0 3 6 10 3 6 3 3 3 3 6 6 6 3 3 0 3
6 13 13 13 10 16 10 10 13 10 6 10 10 6 6 6 3 3 0 0 0 3 3 3 3 3 0 3 0 0 6 6 3 3 0 3 6 6 6 3 3 3 3
6 10 13 10 10 13 10 16 13 10 13 6 3 3 3 6 3 6 6 0 0 0 3 3 3 3 3 3 3 6 10 6 0 0 0 0 3 6 6 3 0 0 0
6 6 3 6 6 10 10 10 13 10 6 3 3 6 10 10 10 10 6 3 6 3 3 3 3 3 3 3 3 6 6 10 3 3 0 0 3 6 3 3 0 0 0
6 3 3 10 10 10 6 6 6 10 3 3 0 0 0 3 3 3 0 3 3 0 3 3 0 0 0 0 0 0 3 3 0 3 3 0 0 3 6 10 10 0 0
3 0 3 3 3 3 3 3 3 0 0 0 0 0 0 0 3 0 0 0 0 0 0 0 0 0 0 0 0 0 0 0 0 0 0 0 0 0 3 3 6 10 0
0 0 0 0 3 3 3 3 3 0 0 0 0 0 0 0 0 0 0 0 0 0 0 0 0 0 0 0 0 0 0 0 0 0 0 0 0 0 0 3 6 3 0
0 0 0 0 3 3 0 3 3 3 3 3 0 0 0 0 0 0 0 0 0 0 0 0 0 0 3 3 3 0 0 0 0 0 0 0 0 0 0 0 3 3 3
0 0 0 0 3 0 0 3 3 3 3 3 3 0 0 0 0 0 0 0 0 0 0 0 0 0 3 3 3 0 0 3 0 0 0 0 0 0 0 0 0 0 0
3 0 0 0 0 0 3 3 3 3 3 3 3 3 0 0 0 0 0 0 3 3 3 3 3 3 3 3 0 0 3 3 0 0 0 0 0 0 0 0 0 0 0
3 3 0 0 0 0 3 3 3 0 0 3 3 3 3 0 0 0 0 3 3 3 3 3 3 3 3 3 0 3 0 0 0 0 0 0 0 0 0 0 0 0 0
3 3 3 0 0 0 0 3 3 3 0 0 0 0 0 3 3 0 3 3 3 3 3 3 3 3 3 0 0 0 0 0 0 0 0 0 0 0 0 0 0 0 0
3 3 3 3 0 0 0 0 0 0 0 0 0 0 0 0 0 0 3 3 3 3 0 0 3 3 0 0 0 0 0 0 0 0 0 0 0 0 0 0 0 0 0
0 3 3 3 0 0 0 0 0 0 0 0 0 0 0 0 0 0 0 3 3 0 0 0 0 0 3 0 0 0 0 0 0 0 0 0 0 0 0 0 0 0 0
0 0 3 3 0 0 0 0 0 0 0 0 0 0 0 0 0 0 0 0 0 0 0 0 0 0 0 0 0 0 0 0 0 0 0 0 0 0 0 0 0 0 0
0 0 0 0 0 0 0 0 0 0 0 0 0 0 0 0 0 0 0 0 0 0 0 0 0 0 0 0 0 0 0 0 0 0 0 0 0 0 0 0 0 0 0

GEFSSE_con_cape1000_216.txt.gz
Probability
13 23 55 55 52 48 58 61 58 58 55 52 48 48 45 48 42 45 52 52 48 45 35 35 32 29 29 29 29 26 23 23 26 23 26 16 16 13 16 23 19 10 19
19 23 45 52 52 48 58 55 52 55 52 52 48 45 45 39 39 42 42 45 52 45 42 39 35 29 23 29 23 16 23 23 19 16 3 6 10 13 16 19 19 10 16
16 26 42 52 52 52 48 48 52 48 48 48 45 45 45 42 42 42 45 42 35 35 35 39 39 35 32 23 19 19 23 19 13 6 3 0 6 10 10 13 26 16 19
19 19 32 45 45 48 48 48 52 52 48 45 45 48 42 42 45 42 45 42 35 35 35 29 32 32 26 29 23 23 23 16 13 6 3 0 0 10 10 10 19 19 16
16 16 29 42 39 42 45 45 39 45 45 42 42 45 45 42 45 45 35 35 35 35 29 26 23 23 26 26 19 19 23 23 10 6 3 3 3 10 10 13 13 10 13
13 13 23 42 39 42 42 42 39 42 42 42 42 42 48 42 45 35 39 35 35 29 26 23 16 19 19 26 16 16 23 13 3 3 3 3 6 10 13 13 10 13 10
16 13 23 26 35 35 35 32 39 42 35 35 32 39 35 35 35 39 35 35 32 26 26 23 19 23 16 19 13 13 16 3 0 0 3 3 6 10 10 6 13 13 10
13 13 16 26 23 32 35 29 32 29 32 35 35 35 29 29 32 35 35 35 32 23 23 19 13 19 19 16 10 10 6 0 0 0 3 0 6 13 10 6 6 10 6
10 10 13 19 19 26 26 26 29 26 29 29 39 39 35 29 29 29 29 32 32 23 26 23 13 13 19 13 3 6 3 0 0 0 0 0 3 10 10 6 6 3 3
10 10 6 13 10 6 10 13 23 19 23 23 26 16 16 16 19 26 13 23 23 23 23 13 10 10 13 6 6 3 0 0 3 3 0 3 6 10 10 0 0 0 0
13 10 6 6 3 3 3 3 3 6 6 6 6 0 0 0 3 0 3 3 13 13 13 16 6 6 3 3 6 0 0 3 0 0 0 3 6 10 10 6 0 3 3
6 10 10 0 0 3 3 3 3 0 0 3 6 0 0 0 0 0 0 3 6 6 6 6 0 0 0 3 3 0 0 0 0 0 0 3 6 6 3 6 3 3 3
3 6 3 3 3 0 3 6 0 0 0 3 0 3 3 0 0 0 0 0 0 3 3 3 0 0 0 0 0 0 0 0 0 0 0 0 10 6 6 6 3 0 0
3 3 3 0 3 0 3 3 0 0 0 3 0 0 3 3 0 0 0 0 0 0 0 0 0 0 0 0 0 0 0 0 0 0 0 0 0 6 6 3 3 0 0
3 3 3 3 3 0 3 0 0 0 0 0 0 0 0 0 3 0 0 0 0 0 0 0 0 0 0 0 0 0 0 0 0 0 0 0 0 0 3 6 6 3 0
3 0 0 0 0 0 0 0 0 0 0 0 0 0 0 0 0 3 0 0 0 0 0 0 0 0 0 0 0 0 0 0 0 0 0 0 0 0 0 6 6 6 6
0 0 0 0 0 0 0 0 0 0 0 0 0 0 0 0 0 0 0 0 0 0 0 0 0 0 0 0 0 0 0 0 0 0 0 0 0 0 0 0 6 6 3
0 0 0 0 0 0 0 0 0 0 0 0 0 0 0 0 0 0 0 0 0 0 0 0 0 0 0 0 0 0 0 0 0 0 0 0 0 0 0 0 3 0 0
0 0 0 0 0 0 0 0 0 0 0 0 0 0 0 0 0 0 0 0 0 0 0 0 0 0 0 0 0 0 0 0 0 0 0 0 0 0 0 0 0 0 0
0 0 0 0 0 0 0 0 0 0 0 0 0 0 0 0 0 0 0 0 0 0 0 0 0 0 0 0 0 0 0 0 0 0 0 0 0 0 0 0 0 0 0
0 0 0 0 0 0 0 0 0 0 0 0 0 0 0 0 0 0 0 0 0 0 0 0 0 0 0 0 0 0 0 0 0 0 0 0 0 0 0 0 0 0 0
0 0 0 0 0 0 0 0 0 0 0 0 0 0 0 0 0 0 0 0 0 0 0 0 0 0 0 0 0 0 0 0 0 0 0 0 0 0 0 0 0 0 0
0 0 0 0 0 0 0 0 0 0 0 0 0 0 0 0 0 0 0 0 0 0 0 0 0 0 0 0 0 0 0 0 0 0 0 0 0 0 0 0 0 0 0
0 0 0 0 0 0 0 0 0 0 0 0 0 0 0 0 0 0 0 0 0 0 0 0 0 0 0 0 0 0 0 0 0 0 0 0 0 0 0 0 0 0 0
0 0 0 0 0 0 0 0 0 0 0 0 0 0 0 0 0 0 0 0 0 0 0 0 0 0 0 0 0 0 0 0 0 0 0 0 0 0 0 0 0 0 0
0 0 0 0 0 0 0 0 0 0 0 0 0 0 0 0 0 0 0 0 0 0 0 0 0 0 0 0 0 0 0 0 0 0 0 0 0 0 0 0 0 0 0

GEFSSE_con_cape1000_222.txt.gz
Probability
3 23 52 55 55 55 58 55 52 55 58 48 48 45 45 42 45 42 45 42 39 45 45 39 39 39 35 35 32 29 26 26 23 23 19 23 19 10 10 23 13 10 13
10 19 48 52 55 55 58 52 52 55 52 45 48 48 45 45 45 45 42 42 42 45 42 45 42 39 35 26 26 19 13 10 19 10 6 6 13 10 13 16 16 3 13
13 29 42 42 42 45 52 52 52 48 48 48 48 48 45 42 48 45 42 32 35 32 35 35 39 39 35 29 19 16 19 16 10 3 3 3 10 10 6 10 19 13 13
16 26 26 42 45 42 45 39 42 45 45 45 45 45 45 42 42 42 39 29 29 32 26 23 29 35 29 26 23 19 16 13 6 0 0 3 10 10 10 6 16 13 10
16 19 26 42 42 42 32 35 39 42 42 45 45 39 39 42 42 39 39 32 29 29 29 26 23 26 26 23 16 16 16 13 6 0 0 0 10 10 10 13 10 6 3
16 16 23 39 42 39 35 32 35 39 42 42 35 35 39 42 39 39 32 35 39 26 23 19 26 26 19 16 19 13 13 10 0 0 0 3 10 10 13 13 13 6 6
10 16 19 29 35 29 35 32 32 35 39 39 35 32 32 39 39 35 35 35 29 23 23 19 19 16 16 16 10 10 10 3 0 0 0 0 6 16 16 13 10 6 10
6 13 19 26 29 32 26 26 29 29 29 35 35 35 29 39 32 32 32 32 23 23 23 23 13 13 10 6 6 3 3 3 0 0 0 0 6 13 16 16 13 6 0
6 6 19 19 16 16 23 19 23 26 26 29 29 29 29 26 32 32 32 29 23 19 19 23 19 13 10 6 6 3 3 0 0 0 0 0 10 16 16 10 6 6 3
6 10 13 16 13 10 10 16 16 19 19 23 19 6 3 10 16 23 26 29 26 23 19 19 16 13 13 3 3 3 3 0 0 0 0 3 13 13 13 6 6 3 0
6 6 13 10 10 3 6 10 6 10 3 3 0 0 0 0 3 6 10 10 16 19 19 16 13 6 10 3 3 3 0 0 0 0 0 3 10 6 13 13 6 3 0
3 3 3 6 3 0 0 3 3 0 0 0 0 0 0 0 0 0 0 0 3 3 0 6 10 6 0 3 3 0 0 0 0 0 0 3 10 10 13 10 10 6 3
3 3 3 3 3 0 0 0 0 0 0 0 0 0 0 0 0 0 0 0 0 0 0 0 0 0 0 0 0 0 0 0 0 0 0 0 13 10 6 3 6 3 0
3 3 3 3 0 0 0 0 0 0 0 0 0 0 0 0 0 0 0 0 0 0 0 0 0 0 0 0 0 0 0 0 0 0 0 0 6 10 6 3 6 6 3
0 3 3 3 0 0 0 0 0 0 0 0 0 0 0 0 0 0 0 0 0 0 0 0 0 0 0 0 0 0 0 0 0 0 0 0 0 3 10 3 3 0 3
0 0 3 3 0 0 0 0 0 0 0 0 0 0 0 0 0 0 0 0 0 0 0 0 0 0 0 0 0 0 0 0 0 0 0 0 0 0 0 0 6 0 0
0 0 0 0 0 0 0 0 0 0 0 0 0 0 0 0 0 0 0 0 0 0 0 0 0 0 0 0 0 0 0 0 0 0 0 0 0 0 0 3 6 6 3
0 0 0 0 0 0 0 0 0 0 0 0 0 0 0 0 0 0 0 3 0 0 0 0 0 0 0 0 0 0 0 0 0 0 0 0 0 0 0 0 3 3 6
0 0 0 0 0 0 0 0 0 0 0 0 0 0 0 0 0 0 0 0 0 0 0 0 0 0 0 0 0 0 0 0 0 0 0 0 0 0 0 0 0 0 0
0 0 0 0 0 0 0 0 0 0 0 0 0 0 0 0 0 0 0 0 0 0 0 0 0 0 0 0 0 0 0 0 0 0 0 0 0 0 0 0 0 0 0
0 0 0 0 0 0 0 0 0 0 0 0 0 0 0 0 0 0 0 0 0 0 0 0 0 0 0 0 0 0 0 0 0 0 0 0 0 0 0 0 0 0 0
0 0 0 0 0 0 0 0 0 0 0 0 0 0 0 0 0 0 0 0 0 0 0 0 0 0 0 0 0 0 0 0 0 0 0 0 0 0 0 0 0 0 0
0 0 0 0 0 0 0 0 0 0 0 0 0 0 0 0 0 0 0 0 0 0 0 0 0 0 0 0 0 0 0 0 0 0 0 0 0 0 0 0 0 0 0
0 0 0 0 0 0 0 0 0 0 0 0 0 0 0 0 0 0 0 0 0 0 0 0 0 0 0 0 0 0 0 0 0 0 0 0 0 0 0 0 0 0 0
0 0 0 0 0 0 0 0 0 0 0 0 0 0 0 0 0 0 0 0 0 0 0 0 0 0 0 0 0 0 0 0 0 0 0 0 0 0 0 0 0 0 0
0 0 0 0 0 0 0 0 0 0 0 0 0 0 0 0 0 0 0 0 0 0 0 0 0 0 0 0 0 0 0 0 0 0 0 0 0 0 0 0 0 0 0

GEFSSE_con_cape1000_228.txt.gz
Probability
0 10 42 48 48 42 45 48 48 52 55 45 42 39 42 42 45 45 42 45 45 48 42 35 32 35 32 23 26 26 23 23 16 19 26 26 19 19 19 19 13 6 16
3 16 48 52 48 42 45 45 48 48 48 45 35 39 39 39 45 42 35 42 48 42 39 42 42 42 26 26 23 32 23 19 16 19 13 10 19 13 13 13 10 10 13
10 19 42 48 52 45 45 45 48 42 39 42 39 32 39 39 39 39 39 39 39 35 39 35 42 45 35 26 23 23 23 19 16 10 0 3 10 13 13 10 13 6 6
10 16 35 48 48 42 42 42 45 39 35 39 42 39 39 42 42 39 39 42 35 35 32 35 35 29 26 23 19 13 13 16 6 3 0 0 10 10 10 10 6 6 6
10 16 23 45 42 35 35 35 39 35 39 39 39 39 39 39 42 42 32 32 32 35 32 32 26 19 19 23 16 10 13 13 6 0 0 3 10 10 10 10 6 3 3
10 13 23 39 39 39 32 29 32 32 32 42 39 39 35 32 35 32 35 32 39 39 35 35 16 19 16 16 13 6 10 10 0 0 0 3 10 10 10 6 3 3 3
10 10 16 35 35 32 32 29 29 32 32 35 39 35 32 32 32 26 32 32 32 35 29 23 16 16 16 16 6 3 6 3 0 0 0 0 6 10 10 6 6 6 3
10 10 13 32 29 32 32 29 23 26 29 32 29 32 35 32 32 29 29 29 32 26 26 19 16 16 19 13 6 3 3 3 0 0 0 0 10 10 10 6 6 3 0
10 10 10 16 16 16 23 26 26 23 23 29 26 26 26 26 19 23 29 29 32 26 26 19 13 16 16 13 3 3 3 0 0 0 0 0 10 10 16 10 6 3 3
10 10 10 13 16 16 16 16 16 16 16 16 13 6 6 3 3 6 13 19 29 29 23 16 10 13 13 10 3 3 0 0 0 0 0 0 6 6 13 13 13 0 0
10 13 13 13 10 10 10 10 10 6 6 3 0 0 0 0 3 3 3 6 16 23 23 16 10 13 0 0 3 3 0 0 0 0 0 0 6 6 10 10 10 6 6
10 13 13 10 6 6 6 3 3 6 0 0 0 0 0 0 0 0 3 6 10 13 13 13 10 0 0 0 0 0 0 0 0 0 0 3 6 6 13 6 10 6 6
6 6 10 6 6 3 3 3 3 0 0 0 0 0 0 0 0 0 0 0 3 3 3 3 0 0 0 0 0 0 0 0 0 0 0 0 6 6 10 10 13 6 6
3 3 6 6 6 3 3 0 3 0 0 0 0 0 0 0 0 0 0 0 0 3 3 0 0 0 0 0 0 0 0 0 0 0 0 0 0 6 13 10 6 6 6
0 3 0 6 3 3 0 0 0 0 0 0 0 0 0 0 0 0 0 0 0 0 0 0 0 0 0 0 0 0 0 0 0 0 0 0 0 0 10 10 6 3 3
0 0 0 0 0 0 3 0 0 0 0 0 0 0 0 0 0 0 0 0 0 0 0 0 0 0 0 0 0 0 0 0 0 0 0 0 0 0 0 6 6 6 3
3 0 0 0 0 0 0 0 0 0 0 0 0 0 0 0 0 0 0 0 0 0 0 0 0 0 0 0 0 0 0 0 0 0 0 0 0 0 0 6 3 3 3
0 0 0 0 0 0 0 0 0 0 0 0 0 0 0 0 0 0 0 0 0 0 0 0 0 0 0 0 0 0 0 0 0 0 0 0 0 0 0 0 3 3 0
0 0 0 0 0 0 0 0 0 0 0 0 0 0 0 0 0 0 0 0 0 0 0 0 0 0 0 0 0 0 0 0 0 0 0 0 0 0 0 0 0 0 0
0 0 0 0 0 0 0 0 0 0 0 0 0 0 0 0 0 0 0 0 0 0 0 0 0 0 0 0 0 0 0 0 0 0 0 0 0 0 0 0 0 0 0
3 0 0 0 0 0 0 0 0 0 0 0 0 0 0 0 0 0 0 0 0 0 0 0 0 0 0 0 0 0 0 0 0 0 0 0 0 0 0 0 0 0 0
0 0 0 0 0 0 0 0 0 0 0 0 0 0 0 0 0 0 0 0 0 0 0 0 0 0 0 0 0 0 0 0 0 0 0 0 0 0 0 0 0 0 0
0 0 0 0 0 0 0 0 0 0 0 0 0 0 0 0 0 0 0 0 0 0 0 0 0 0 0 0 0 0 0 0 0 0 0 0 0 0 0 0 0 0 0
0 0 0 0 0 0 0 0 0 0 0 0 0 0 0 0 0 0 0 0 0 0 0 0 0 0 0 0 0 0 0 0 0 0 0 0 0 0 0 0 0 0 0
0 0 0 0 0 0 0 0 0 0 0 0 0 0 0 0 0 0 0 0 0 0 0 0 0 0 0 0 0 0 0 0 0 0 0 0 0 0 0 0 0 0 0
0 0 0 0 0 0 0 0 0 0 0 0 0 0 0 0 0 0 0 0 0 0 0 0 0 0 0 0 0 0 0 0 0 0 0 0 0 0 0 0 0 0 0

GEFSSE_con_cape1000_234.txt.gz
Probability
16 29 45 52 48 52 52 48 48 52 48 45 35 32 39 42 45 55 52 48 45 42 39 39 42 35 26 19 16 23 23 23 23 23 26 26 26 19 16 13 16 13 13
16 26 48 52 48 52 48 48 48 48 48 45 35 29 29 42 42 39 42 52 45 42 42 39 39 35 32 23 23 23 23 19 19 16 16 16 16 16 10 10 19 10 13
13 26 48 52 45 48 48 45 48 48 42 42 35 32 32 39 39 45 39 39 35 39 35 39 42 32 32 23 26 19 23 13 10 13 6 10 13 13 6 6 10 13 10
16 26 42 52 42 45 52 48 48 42 42 39 39 32 32 39 42 39 42 35 29 29 29 35 39 32 32 29 26 26 26 10 6 3 10 10 6 13 3 3 3 6 6
19 29 35 48 45 42 48 48 45 42 42 39 35 39 35 39 35 35 32 35 35 35 32 29 32 29 29 19 19 23 26 10 3 3 6 10 6 6 3 3 3 3 3
16 29 39 48 42 45 42 42 42 45 42 32 35 39 35 35 32 32 35 39 39 32 32 32 23 19 23 19 23 19 16 3 0 0 3 3 6 6 3 3 3 3 3
19 23 29 35 39 42 39 42 42 39 35 32 32 32 29 29 29 26 35 32 35 32 32 29 16 16 13 13 19 13 13 3 0 0 3 3 3 6 0 0 3 3 3
19 23 29 32 29 23 32 32 29 35 32 35 32 29 26 26 26 26 32 32 29 35 29 23 19 16 13 13 13 10 0 0 0 0 3 3 10 10 3 3 3 6 6
19 23 29 26 16 19 19 23 23 26 26 26 23 23 19 19 19 16 26 32 29 32 32 26 23 19 16 13 6 0 0 0 0 3 3 6 3 3 3 0 0 0 3
16 19 19 19 13 10 16 10 10 16 16 13 13 13 10 3 10 6 10 16 19 23 32 29 26 19 16 10 0 0 0 0 0 0 3 0 6 3 3 0 0 0 3
16 19 16 16 10 13 13 10 10 10 10 6 3 0 0 6 3 3 3 3 6 16 19 23 23 16 6 0 0 0 0 0 0 0 0 0 3 3 0 3 0 0 0
16 16 19 16 10 13 13 13 13 10 10 10 10 3 6 3 3 3 0 0 3 6 6 16 13 6 0 0 0 0 0 0 0 0 0 0 3 3 3 3 3 0 0
16 13 13 13 13 10 13 13 13 13 13 13 6 6 10 6 0 0 3 3 3 3 6 6 6 6 6 3 0 0 0 0 0 0 0 0 3 0 3 3 3 6 0
13 13 13 13 13 13 10 13 13 13 13 10 10 6 10 6 0 0 3 6 10 13 6 13 10 6 3 3 0 0 0 0 0 0 0 0 0 0 3 0 3 3 3
10 13 13 13 13 13 16 10 13 13 10 10 10 10 6 0 0 0 0 3 10 10 13 10 10 6 0 0 0 0 0 0 0 0 0 0 0 0 0 0 3 10 6
6 10 13 13 13 13 10 10 10 6 10 10 6 6 6 0 0 0 0 0 6 6 10 10 10 10 3 0 0 0 0 0 0 0 0 0 0 0 0 0 0 3 6
6 6 10 13 10 10 10 10 6 6 3 3 3 3 3 0 0 0 0 0 0 6 6 6 3 3 0 0 0 0 0 0 0 0 0 0 0 0 0 0 0 0 0
10 6 6 3 6 10 10 10 6 6 3 3 6 3 0 0 0 0 0 0 3 3 6 3 0 0 0 0 0 0 0 0 0 0 0 0 0 0 0 0 0 0 0
6 3 3 3 3 6 10 10 10 3 3 3 6 0 0 0 0 0 0 0 0 0 3 3 0 0 0 0 0 0 0 0 0 0 0 0 0 0 0 0 0 0 0
3 0 3 6 3 6 6 6 3 3 3 3 3 0 0 0 0 0 0 0 0 0 3 3 0 0 0 0 0 0 0 0 0 0 0 0 0 0 0 0 0 0 0
3 3 3 3 3 6 0 0 0 0 3 3 3 3 0 0 0 0 0 0 0 0 0 3 0 0 0 0 0 0 0 0 0 0 0 0 0 0 0 0 0 0 0
6 3 3 0 3 3 3 0 0 0 0 0 3 3 0 0 0 0 0 0 0 0 0 0 0 0 0 0 0 0 0 0 0 0 0 0 0 0 0 0 0 0 0
0 6 0 0 3 3 0 0 0 0 0 0 0 0 0 0 0 0 0 0 0 0 0 0 0 0 0 0 0 0 0 0 0 0 0 0 0 0 0 0 0 0 0
0 3 3 3 0 0 0 0 0 0 0 0 0 0 0 0 0 0 0 0 0 0 0 0 0 0 0 0 0 0 0 0 0 0 0 0 0 0 0 0 0 0 0
0 0 3 3 0 0 0 0 0 0 0 0 0 0 0 0 0 0 0 0 0 0 0 0 0 0 0 0 0 0 0 0 0 0 0 0 0 0 0 0 0 0 0
0 0 0 3 3 0 0 0 0 0 0 0 0 0 0 0 0 0 0 0 0 0 0 0 0 0 0 0 0 0 0 0 0 0 0 0 0 0 0 0 0 0 0

GEFSSE_con_cape1000_240.txt.gz
Probability
29 26 58 52 48 52 48 48 48 52 45 45 39 45 42 45 48 58 48 48 45 42 39 45 45 35 29 23 26 29 29 26 23 19 23 29 32 26 23 26 23 10 23
39 32 58 52 48 48 52 52 48 45 42 39 32 32 39 39 42 48 42 48 45 45 39 35 32 29 23 26 29 29 19 16 10 13 13 13 16 26 16 19 26 16 19
39 35 52 55 48 48 48 52 42 42 39 35 32 35 32 32 42 39 35 39 42 39 42 42 35 35 26 29 32 26 16 10 13 10 3 3 3 16 13 16 16 26 19
32 39 39 52 48 48 48 45 42 42 35 39 32 32 35 26 32 42 35 32 35 35 39 35 35 35 35 32 32 26 16 10 10 0 3 3 3 3 10 13 16 16 10
29 32 35 52 48 48 45 42 42 35 39 35 29 29 29 29 29 35 29 32 29 32 32 32 35 29 32 32 29 29 16 13 0 0 0 0 3 6 6 13 13 13 6
29 32 32 52 48 45 45 45 35 39 35 39 32 29 29 26 26 29 32 35 29 29 32 32 23 19 19 26 23 23 16 10 0 0 0 0 0 3 3 10 10 3 10
26 26 29 48 45 42 42 35 35 39 39 35 32 32 29 29 23 29 32 32 29 29 26 26 23 19 19 23 16 16 16 0 0 0 0 0 0 13 6 0 6 3 6
26 23 19 39 42 35 35 39 35 35 35 35 32 35 32 29 26 23 29 32 26 29 26 23 26 19 19 16 16 13 3 0 0 0 0 0 0 10 3 3 6 6 3
23 19 16 19 23 29 29 32 29 29 29 29 26 29 26 19 19 16 23 26 26 23 23 19 26 19 16 16 19 0 0 0 0 0 0 0 6 6 6 0 3 3 3
19 19 16 16 16 13 13 16 19 23 23 23 16 10 3 13 16 13 13 16 23 23 16 19 19 23 16 16 10 0 0 0 0 0 0 0 3 6 3 3 6 0 0
19 19 16 16 13 10 13 13 13 6 6 6 0 3 3 3 3 3 3 6 6 10 19 19 19 19 13 3 0 0 0 0 0 0 0 0 6 3 3 3 3 0 0
16 16 10 13 10 10 10 10 10 3 0 0 0 0 0 0 0 3 3 3 6 6 6 13 16 6 3 0 0 0 0 0 0 0 0 0 6 3 3 3 6 3 3
13 13 13 10 10 10 6 10 10 6 3 3 3 3 0 0 0 0 0 0 0 0 0 3 3 3 0 0 0 0 0 0 0 0 0 0 3 3 3 3 10 3 0
13 13 13 10 10 10 10 10 10 10 6 6 3 3 0 0 0 0 0 0 0 0 0 0 0 0 0 0 0 0 0 0 0 0 0 0 3 3 3 3 3 3 0
10 13 13 13 10 10 10 10 10 10 10 3 3 3 3 0 0 0 0 0 0 0 0 0 0 0 0 0 0 0 0 0 0 0 0 0 0 3 3 3 3 0 0
10 10 10 13 10 10 10 10 10 10 6 0 3 3 3 3 0 0 0 0 0 0 0 0 0 0 0 0 0 0 0 0 0 0 0 0 0 0 3 6 0 0 0
10 10 10 10 10 10 10 10 10 10 3 3 0 0 0 3 0 0 0 0 0 0 0 0 0 0 0 0 0 0 0 0 0 0 0 0 0 0 0 0 3 0 0
6 6 10 10 10 10 10 6 6 6 6 3 0 0 0 0 0 0 0 0 0 0 0 0 0 0 0 0 0 0 0 0 0 0 0 0 0 0 0 0 0 3 3
6 6 6 6 6 6 6 3 0 0 3 0 0 0 0 0 0 0 0 0 0 0 0 0 0 0 0 0 0 0 0 0 0 0 0 0 0 0 0 0 0 0 0
3 3 3 3 3 6 6 3 0 0 0 0 0 0 3 0 0 0 0 0 0 0 0 0 0 0 0 0 0 0 0 0 0 0 0 0 0 0 0 0 0 0 0
3 3 3 3 3 3 3 0 0 0 0 0 3 0 0 0 0 0 0 0 0 0 0 0 0 0 0 0 0 0 0 0 0 0 0 0 0 0 0 0 0 0 0
3 3 3 6 3 3 3 0 0 0 0 0 3 0 0 0 0 0 0 0 0 0 0 0 0 0 0 0 0 0 0 0 0 0 0 0 0 0 0 0 0 0 0
3 0 3 3 3 0 0 0 0 0 0 0 0 3 0 0 0 0 0 0 0 0 0 0 0 0 0 0 0 0 0 0 0 0 0 0 0 0 0 0 0 0 0
3 0 0 0 0 0 0 0 0 0 0 0 0 0 0 0 0 0 0 0 0 0 0 0 0 0 0 0 0 0 0 0 0 0 0 0 0 0 0 0 0 0 0
3 0 0 0 0 0 0 0 0 0 0 0 0 0 0 0 0 0 0 0 0 0 0 0 0 0 0 0 0 0 0 0 0 0 0 0 0 0 0 0 0 0 0
0 0 0 0 0 0 0 0 0 0 0 0 0 0 0 0 0 0 0 0 0 0 0 0 0 0 0 0 0 0 0 0 0 0 0 0 0 0 0 0 0 0 0

GEFSSE_con_cape1000_246.txt.gz
Probability
19 35 65 52 52 52 55 48 52 45 42 45 42 45 45 45 52 58 45 48 52 52 61 55 48 55 45 42 32 23 19 16 19 19 29 35 39 29 32 26 13 6 19
19 42 65 58 52 52 52 45 45 48 48 45 45 45 48 45 42 55 48 42 48 39 45 48 42 32 35 32 23 16 13 13 13 6 3 10 16 19 19 19 16 10 16
29 39 55 58 55 52 45 45 42 42 45 42 42 42 48 45 42 42 42 42 45 42 39 42 35 35 26 29 26 16 13 13 10 3 3 3 10 19 16 19 19 16 10
29 42 48 58 55 48 48 45 42 42 35 39 39 39 35 39 39 42 35 29 39 42 35 32 32 35 32 29 23 23 10 10 0 0 0 3 3 16 16 13 13 16 13
32 35 48 58 52 52 45 39 39 32 32 35 32 32 32 35 39 35 29 26 26 26 29 26 32 32 29 23 26 23 13 10 0 0 0 0 3 13 13 16 13 10 6
29 35 45 55 55 52 45 42 35 32 35 29 32 32 32 29 29 35 35 26 23 23 23 23 23 29 23 26 16 13 13 3 0 0 0 0 0 6 6 10 13 13 10
26 29 35 52 52 42 42 35 35 35 35 29 32 29 32 23 23 26 26 19 19 19 23 19 19 23 26 23 16 13 6 0 0 0 0 0 0 3 6 6 13 13 10
19 29 39 48 45 42 35 35 32 32 32 29 32 26 26 26 23 23 16 19 16 19 19 19 16 23 23 23 19 10 0 0 0 0 0 0 6 6 3 10 6 13 10
19 19 23 32 32 29 32 32 32 35 35 35 39 32 26 29 26 19 16 16 16 16 19 19 19 19 19 19 16 3 0 0 0 0 0 0 6 6 3 6 10 3 6
16 13 16 23 23 23 19 19 29 26 23 29 26 23 16 13 10 10 10 10 13 13 16 16 16 16 19 16 10 0 0 0 0 0 0 0 16 10 6 3 3 3 6
10 13 16 16 16 19 16 13 13 13 10 10 10 10 6 6 6 6 6 6 10 10 13 13 13 16 6 6 3 0 0 0 0 0 0 0 13 6 3 6 6 3 6
16 13 16 16 13 16 13 10 10 6 3 3 0 0 3 3 3 3 3 6 6 6 10 10 10 6 3 3 0 0 0 0 0 0 0 3 13 10 3 6 6 6 3
16 16 13 13 13 6 10 6 6 3 3 3 0 0 3 0 0 0 0 0 0 0 0 3 3 0 0 0 0 0 0 0 0 0 0 0 13 6 3 6 6 6 3
16 16 10 10 6 6 6 6 6 3 3 3 0 0 0 0 0 0 0 0 0 0 0 0 0 0 0 0 0 0 0 0 0 0 0 0 6 13 6 3 6 6 3
16 13 10 6 6 6 6 6 6 3 3 0 0 0 0 0 0 0 0 0 0 0 0 0 0 0 0 0 0 0 0 0 0 0 0 0 0 10 10 10 6 6 3
6 10 10 6 6 6 6 6 3 3 3 0 0 0 0 0 0 0 0 0 0 0 0 0 0 0 0 0 0 0 0 0 0 0 0 0 0 0 13 10 6 6 6
6 6 6 6 6 6 6 6 3 3 3 0 0 0 0 0 0 0 0 0 0 0 0 0 0 0 0 0 0 0 0 0 0 0 0 0 0 0 0 13 3 6 6
3 3 6 10 6 6 6 6 6 3 3 0 0 0 0 0 0 0 0 0 0 0 0 0 0 0 0 0 0 0 0 0 0 0 0 0 0 0 0 3 3 6 3
3 3 3 6 6 6 6 6 6 6 3 0 0 0 0 0 0 0 0 0 0 0 0 0 0 0 0 0 0 0 0 0 0 0 0 0 0 0 0 0 0 0 3
0 6 6 6 6 6 3 3 6 6 3 3 0 0 0 0 0 0 0 0 0 0 0 0 0 0 0 0 0 0 0 0 0 0 0 0 0 0 0 0 0 0 0
0 3 3 6 6 6 6 0 6 6 6 0 0 0 0 0 0 0 0 0 0 0 0 0 0 0 0 0 0 0 0 0 0 0 0 0 0 0 0 0 0 0 0
0 3 3 3 3 6 6 0 3 6 6 0 0 0 0 0 0 0 0 0 0 0 0 0 0 0 0 0 0 0 0 0 0 0 0 0 0 0 0 0 0 0 0
0 0 0 3 3 3 0 0 0 0 0 0 0 0 0 0 0 0 0 0 0 0 0 0 0 0 0 0 0 0 0 0 0 0 0 0 0 0 0 0 0 0 0
0 0 0 0 3 3 0 0 0 0 0 0 0 0 0 0 0 0 0 0 0 0 0 0 0 0 0 0 0 0 0 0 0 0 0 0 0 0 0 0 0 0 0
0 0 0 0 0 0 0 0 0 0 0 0 0 0 0 0 0 0 0 0 0 0 0 0 0 0 0 0 0 0 0 0 0 0 0 0 0 0 0 0 0 0 0
0 0 0 0 0 0 0 0 0 0 0 0 0 0 0 0 0 0 0 0 0 0 0 0 0 0 0 0 0 0 0 0 0 0 0 0 0 0 0 0 0 0 0

GEFSSE_con_cape1000_252.txt.gz
Probability
3 26 61 61 52 52 55 55 52 55 52 48 45 52 52 52 48 58 58 58 61 61 61 58 58 42 42 42 35 35 29 32 29 29 29 35 39 23 13 13 13 3 19
3 29 61 55 52 52 55 52 52 48 45 48 45 45 48 48 45 45 48 58 58 58 55 52 55 39 39 39 35 26 16 16 13 13 10 10 19 23 13 19 23 10 23
10 32 48 58 52 48 48 52 48 42 48 42 39 39 48 52 42 42 48 48 52 52 45 48 35 35 35 32 29 23 13 10 10 6 6 3 6 26 16 19 23 19 26
26 32 42 58 52 45 48 52 42 42 45 45 45 42 45 42 42 45 42 39 42 48 45 39 35 26 26 23 23 16 13 6 6 6 0 0 3 16 13 16 16 19 13
29 29 42 52 52 45 48 45 42 42 39 45 42 45 42 42 42 32 35 35 32 39 32 29 26 23 26 23 19 16 13 3 0 0 0 0 0 10 13 13 16 10 10
26 29 39 48 48 45 48 45 42 39 35 39 39 45 35 32 32 35 29 29 26 26 29 26 29 23 23 26 19 13 3 3 0 0 0 0 0 10 13 13 16 13 10
26 32 39 48 52 45 45 42 39 39 35 32 32 35 29 29 32 23 26 19 19 26 23 26 26 16 19 26 23 13 0 0 0 0 0 0 0 10 6 10 16 13 10
23 29 32 52 48 45 35 39 39 32 32 32 32 35 26 29 29 26 23 16 16 16 16 23 16 19 19 16 16 6 0 0 0 0 0 0 3 10 6 10 13 13 13
13 26 26 29 32 35 32 35 35 29 29 32 32 32 32 35 26 26 26 16 16 16 16 13 16 16 16 13 10 3 0 0 0 0 0 0 3 3 10 6 6 6 6
10 23 19 26 23 23 19 23 19 26 26 26 29 19 16 16 16 13 13 10 10 13 13 13 13 10 10 6 3 0 0 0 0 0 0 0 3 3 3 3 3 6 6
13 13 19 16 16 16 13 19 16 19 16 13 13 6 6 6 6 6 6 6 6 10 10 13 13 13 6 0 0 0 0 0 0 0 0 0 6 10 6 3 3 3 6
16 13 13 13 13 13 13 13 13 10 10 13 13 6 6 6 6 6 6 6 6 6 6 6 6 6 0 0 0 0 0 0 0 0 0 0 6 6 6 3 3 6 6
13 13 13 13 13 10 10 10 10 10 6 6 10 3 3 0 0 0 0 0 0 3 3 3 3 0 0 0 0 0 0 0 0 0 0 0 3 6 3 3 3 6 10
13 13 13 10 10 10 10 10 10 10 6 6 10 6 0 0 0 0 0 0 0 0 0 0 0 0 0 0 0 0 0 0 0 0 0 0 3 3 6 3 3 3 6
13 13 13 10 10 10 10 10 10 6 6 3 3 3 0 0 0 0 0 0 0 0 0 0 0 0 0 0 0 0 0 0 0 0 0 0 0 0 6 6 3 3 3
10 10 10 10 10 6 6 6 6 6 6 6 0 0 0 0 0 0 0 0 0 0 0 0 0 0 0 0 0 0 0 0 0 0 0 0 0 0 0 3 3 3 3
10 10 10 10 3 3 6 6 6 6 6 6 0 0 0 0 0 0 0 0 0 0 0 0 0 0 0 0 0 0 0 0 0 0 0 0 0 0 0 0 6 3 3
3 10 10 10 3 3 3 6 6 6 6 6 3 0 0 0 0 0 0 0 0 0 0 0 0 0 0 0 0 0 0 0 0 0 0 0 0 0 0 0 0 0 3
3 10 10 6 3 3 3 6 6 6 6 3 3 0 0 0 0 0 0 0 0 0 0 0 0 0 0 0 0 0 0 0 0 0 0 0 0 0 0 0 0 0 0
3 6 6 6 3 3 3 6 6 6 6 0 0 0 0 0 0 0 0 0 0 0 0 0 0 0 0 0 0 0 0 0 0 0 0 0 0 0 0 0 0 0 0
0 0 3 3 3 3 3 0 3 3 0 0 0 0 0 0 0 0 0 0 0 0 0 0 0 0 0 0 0 0 0 0 0 0 0 0 0 0 0 0 0 0 0
0 0 3 3 0 0 0 0 3 0 0 0 0 0 0 0 0 0 0 0 0 0 0 0 0 0 0 0 0 0 0 0 0 0 0 0 0 0 0 0 0 0 0
0 0 0 0 0 0 0 0 0 0 0 0 0 0 0 0 0 0 0 0 0 0 0 0 0 0 0 0 0 0 0 0 0 0 0 0 0 0 0 0 0 0 0
0 0 0 0 0 0 0 0 0 0 0 0 0 0 0 0 0 0 0 0 0 0 0 0 0 0 0 0 0 0 0 0 0 0 0 0 0 0 0 0 0 0 0
0 0 0 0 0 0 0 0 0 0 0 0 0 0 0 0 0 0 0 0 0 0 0 0 0 0 0 0 0 0 0 0 0 0 0 0 0 0 0 0 0 0 0
0 0 0 0 0 0 0 0 0 0 0 0 0 0 0 0 0 0 0 0 0 0 0 0 0 0 0 0 0 0 0 0 0 0 0 0 0 0 0 0 0 0 0